QPF
0.07 0.08 0.09 0.09 0.09 0.08 0.07 0.07 0.06 0.05 0.05 0.05 0.04 0.03 0.03 0.02 0.01 0.01 0.02 0.01 0.01 0.00 0.00 0.00 0.00 0.01 0.03 0.06 0.08 0.09 0.09 0.09 0.09 0.08 0.07 0.07 0.08 0.10
0.09 0.10 0.11 0.12 0.12 0.10 0.08 0.08 0.07 0.05 0.05 0.06 0.04 0.03 0.04 0.02 0.02 0.02 0.02 0.03 0.02 0.01 0.01 0.00 0.00 0.00 0.00 0.01 0.02 0.03 0.04 0.04 0.04 0.05 0.05 0.05 0.05 0.05
0.12 0.12 0.12 0.12 0.13 0.11 0.09 0.08 0.09 0.07 0.06 0.04 0.03 0.02 0.03 0.02 0.01 0.01 0.00 0.01 0.01 0.01 0.01 0.00 0.00 0.00 0.00 0.00 0.00 0.01 0.02 0.02 0.02 0.02 0.02 0.02 0.02 0.03
0.13 0.13 0.13 0.13 0.15 0.13 0.10 0.09 0.09 0.08 0.05 0.03 0.01 0.02 0.02 0.01 0.01 0.00 0.00 0.00 0.00 0.00 0.00 0.00 0.00 0.00 0.00 0.00 0.00 0.00 0.00 0.01 0.01 0.01 0.02 0.02 0.01 0.01
0.13 0.12 0.12 0.13 0.16 0.15 0.13 0.11 0.08 0.06 0.04 0.02 0.01 0.01 0.01 0.01 0.00 0.00 0.00 0.00 0.00 0.00 0.00 0.00 0.00 0.00 0.00 0.00 0.00 0.00 0.00 0.00 0.00 0.00 0.01 0.01 0.01 0.01
0.15 0.12 0.10 0.11 0.15 0.15 0.11 0.08 0.07 0.05 0.02 0.01 0.01 0.00 0.00 0.00 0.00 0.00 0.00 0.00 0.00 0.00 0.00 0.00 0.00 0.00 0.00 0.00 0.00 0.00 0.00 0.00 0.00 0.00 0.00 0.00 0.01 0.01
0.10 0.10 0.10 0.09 0.09 0.10 0.09 0.07 0.05 0.03 0.02 0.01 0.00 0.00 0.00 0.00 0.00 0.00 0.00 0.00 0.00 0.00 0.00 0.00 0.00 0.00 0.00 0.00 0.00 0.00 0.00 0.00 0.00 0.00 0.00 0.00 0.00 0.00
0.06 0.05 0.06 0.06 0.05 0.06 0.07 0.05 0.03 0.01 0.01 0.00 0.00 0.00 0.00 0.00 0.00 0.00 0.00 0.00 0.00 0.00 0.00 0.00 0.00 0.00 0.00 0.00 0.00 0.00 0.00 0.00 0.00 0.00 0.00 0.00 0.00 0.00
0.04 0.02 0.02 0.02 0.02 0.02 0.02 0.01 0.00 0.00 0.00 0.00 0.00 0.00 0.00 0.00 0.00 0.00 0.00 0.00 0.00 0.00 0.00 0.00 0.00 0.00 0.00 0.00 0.00 0.00 0.00 0.00 0.00 0.00 0.00 0.00 0.00 0.00
0.03 0.02 0.01 0.01 0.01 0.00 0.00 0.00 0.00 0.00 0.00 0.00 0.00 0.00 0.00 0.00 0.00 0.00 0.00 0.00 0.00 0.00 0.00 0.00 0.00 0.00 0.00 0.00 0.00 0.00 0.00 0.00 0.00 0.00 0.00 0.00 0.00 0.00
0.01 0.01 0.01 0.01 0.00 0.00 0.00 0.00 0.00 0.00 0.00 0.00 0.00 0.00 0.00 0.00 0.00 0.00 0.00 0.00 0.00 0.00 0.00 0.00 0.00 0.00 0.00 0.00 0.00 0.00 0.00 0.00 0.00 0.00 0.00 0.00 0.01 0.01
0.00 0.01 0.00 0.00 0.00 0.00 0.00 0.00 0.00 0.00 0.00 0.00 0.00 0.00 0.00 0.00 0.00 0.00 0.00 0.00 0.00 0.00 0.00 0.00 0.00 0.00 0.00 0.00 0.00 0.00 0.00 0.00 0.01 0.01 0.01 0.01 0.02 0.02
0.00 0.00 0.00 0.00 0.00 0.00 0.00 0.00 0.00 0.00 0.00 0.00 0.00 0.00 0.00 0.00 0.00 0.00 0.00 0.00 0.00 0.00 0.00 0.00 0.00 0.00 0.00 0.00 0.00 0.00 0.01 0.01 0.01 0.01 0.01 0.02 0.03 0.05
0.00 0.00 0.00 0.00 0.00 0.00 0.00 0.00 0.00 0.00 0.00 0.00 0.00 0.00 0.00 0.00 0.00 0.00 0.00 0.00 0.00 0.00 0.00 0.00 0.00 0.00 0.00 0.00 0.00 0.00 0.00 0.01 0.02 0.03 0.03 0.04 0.06 0.10
0.00 0.00 0.00 0.00 0.00 0.00 0.00 0.00 0.00 0.00 0.00 0.00 0.00 0.00 0.00 0.00 0.00 0.00 0.00 0.00 0.00 0.00 0.00 0.00 0.00 0.00 0.00 0.00 0.00 0.00 0.01 0.02 0.04 0.05 0.06 0.07 0.08 0.11
0.00 0.00 0.00 0.00 0.00 0.00 0.00 0.00 0.00 0.00 0.00 0.00 0.00 0.00 0.00 0.00 0.00 0.00 0.00 0.00 0.00 0.00 0.00 0.00 0.00 0.00 0.00 0.00 0.00 0.00 0.02 0.04 0.04 0.03 0.04 0.06 0.08 0.12
0.00 0.00 0.00 0.00 0.00 0.00 0.00 0.00 0.00 0.00 0.00 0.00 0.00 0.00 0.00 0.00 0.00 0.00 0.00 0.00 0.00 0.00 0.00 0.00 0.00 0.00 0.00 0.00 0.00 0.00 0.01 0.01 0.02 0.02 0.02 0.04 0.06 0.08
0.00 0.00 0.00 0.00 0.00 0.00 0.00 0.00 0.00 0.00 0.00 0.00 0.00 0.00 0.00 0.00 0.00 0.00 0.00 0.00 0.00 0.00 0.00 0.00 0.00 0.00 0.00 0.00 0.00 0.00 0.00 0.00 0.00 0.01 0.01 0.02 0.04 0.06
0.00 0.00 0.00 0.00 0.00 0.00 0.00 0.00 0.00 0.00 0.00 0.00 0.00 0.00 0.00 0.00 0.00 0.00 0.00 0.00 0.00 0.00 0.00 0.00 0.00 0.00 0.00 0.00 0.00 0.00 0.00 0.00 0.00 0.00 0.00 0.01 0.02 0.03
0.00 0.00 0.00 0.00 0.00 0.00 0.00 0.00 0.00 0.00 0.00 0.00 0.00 0.00 0.00 0.00 0.00 0.00 0.00 0.00 0.00 0.00 0.00 0.00 0.00 0.00 0.00 0.00 0.00 0.00 0.00 0.00 0.00 0.00 0.00 0.01 0.02 0.02
0.00 0.00 0.00 0.00 0.00 0.00 0.00 0.00 0.00 0.00 0.00 0.00 0.00 0.00 0.00 0.00 0.00 0.00 0.00 0.00 0.00 0.00 0.00 0.00 0.00 0.00 0.00 0.00 0.00 0.00 0.00 0.00 0.00 0.00 0.00 0.01 0.02 0.02
0.00 0.00 0.00 0.00 0.00 0.00 0.00 0.00 0.00 0.00 0.00 0.00 0.00 0.00 0.00 0.00 0.00 0.00 0.00 0.00 0.00 0.00 0.00 0.00 0.00 0.00 0.00 0.00 0.00 0.00 0.00 0.00 0.00 0.00 0.00 0.00 0.00 0.01
0.00 0.00 0.00 0.00 0.00 0.00 0.00 0.00 0.00 0.00 0.00 0.00 0.00 0.00 0.00 0.00 0.00 0.00 0.00 0.00 0.00 0.00 0.00 0.00 0.00 0.00 0.00 0.00 0.00 0.00 0.00 0.00 0.00 0.00 0.00 0.00 0.00 0.00
MSLP
1006.02 1006.41 1006.84 1007.30 1007.74 1008.16 1008.53 1008.85 1009.13 1009.34 1009.50 1009.60 1009.63 1009.60 1009.52 1009.39 1009.23 1009.05 1008.88 1008.74 1008.65 1008.61 1008.63 1008.72 1008.86 1009.04 1009.26 1009.50 1009.76 1010.04 1010.31 1010.57 1010.82 1011.04 1011.23 1011.37 1011.46 1011.52
1005.62 1006.00 1006.44 1006.91 1007.37 1007.83 1008.25 1008.63 1008.97 1009.27 1009.51 1009.70 1009.82 1009.87 1009.86 1009.79 1009.68 1009.54 1009.39 1009.26 1009.17 1009.12 1009.13 1009.20 1009.31 1009.48 1009.67 1009.89 1010.13 1010.37 1010.60 1010.83 1011.02 1011.19 1011.31 1011.38 1011.39 1011.36
1005.39 1005.76 1006.19 1006.65 1007.13 1007.61 1008.07 1008.50 1008.90 1009.26 1009.58 1009.84 1010.05 1010.18 1010.24 1010.23 1010.17 1010.07 1009.95 1009.83 1009.74 1009.68 1009.68 1009.72 1009.82 1009.96 1010.13 1010.33 1010.54 1010.75 1010.95 1011.13 1011.28 1011.39 1011.45 1011.45 1011.39 1011.27
1005.38 1005.71 1006.12 1006.57 1007.05 1007.53 1008.01 1008.48 1008.93 1009.35 1009.72 1010.06 1010.33 1010.53 1010.65 1010.70 1010.69 1010.63 1010.53 1010.42 1010.32 1010.26 1010.23 1010.25 1010.31 1010.42 1010.56 1010.73 1010.91 1011.08 1011.25 1011.40 1011.50 1011.56 1011.56 1011.49 1011.36 1011.17
1005.60 1005.89 1006.26 1006.68 1007.14 1007.62 1008.11 1008.59 1009.07 1009.53 1009.95 1010.33 1010.65 1010.90 1011.08 1011.17 1011.20 1011.16 1011.08 1010.98 1010.88 1010.79 1010.74 1010.72 1010.75 1010.81 1010.91 1011.04 1011.17 1011.31 1011.44 1011.54 1011.60 1011.61 1011.56 1011.42 1011.22 1010.96
1006.03 1006.27 1006.59 1006.97 1007.40 1007.86 1008.34 1008.82 1009.31 1009.78 1010.22 1010.63 1010.98 1011.27 1011.48 1011.60 1011.65 1011.64 1011.57 1011.47 1011.35 1011.24 1011.16 1011.10 1011.08 1011.10 1011.14 1011.22 1011.31 1011.40 1011.48 1011.53 1011.55 1011.50 1011.39 1011.20 1010.93 1010.60
1006.63 1006.81 1007.08 1007.41 1007.79 1008.21 1008.66 1009.13 1009.60 1010.07 1010.51 1010.93 1011.29 1011.59 1011.81 1011.95 1012.02 1012.02 1011.96 1011.85 1011.73 1011.60 1011.48 1011.38 1011.31 1011.27 1011.27 1011.28 1011.31 1011.34 1011.37 1011.37 1011.33 1011.24 1011.07 1010.82 1010.49 1010.09
1007.31 1007.44 1007.65 1007.93 1008.26 1008.64 1009.04 1009.47 1009.91 1010.36 1010.78 1011.18 1011.54 1011.83 1012.05 1012.21 1012.28 1012.29 1012.23 1012.13 1012.00 1011.86 1011.71 1011.58 1011.47 1011.38 1011.31 1011.26 1011.23 1011.20 1011.17 1011.11 1011.02 1010.87 1010.64 1010.34 1009.95 1009.48
1007.98 1008.09 1008.26 1008.49 1008.77 1009.09 1009.45 1009.83 1010.23 1010.63 1011.02 1011.39 1011.72 1012.00 1012.22 1012.37 1012.45 1012.46 1012.42 1012.33 1012.20 1012.06 1011.90 1011.75 1011.60 1011.46 1011.34 1011.23 1011.14 1011.05 1010.95 1010.83 1010.68 1010.47 1010.19 1009.83 1009.38 1008.84
1008.57 1008.68 1008.83 1009.02 1009.26 1009.54 1009.85 1010.18 1010.53 1010.88 1011.23 1011.56 1011.86 1012.12 1012.33 1012.47 1012.56 1012.59 1012.56 1012.49 1012.39 1012.25 1012.10 1011.93 1011.76 1011.59 1011.43 1011.27 1011.11 1010.96 1010.80 1010.61 1010.40 1010.14 1009.81 1009.39 1008.89 1008.30
1009.03 1009.16 1009.32 1009.51 1009.72 1009.96 1010.23 1010.52 1010.83 1011.14 1011.45 1011.74 1012.02 1012.25 1012.45 1012.59 1012.69 1012.73 1012.73 1012.69 1012.60 1012.49 1012.35 1012.19 1012.01 1011.82 1011.62 1011.42 1011.21 1010.99 1010.77 1010.53 1010.26 1009.94 1009.57 1009.11 1008.57 1007.93
1009.35 1009.54 1009.73 1009.93 1010.14 1010.36 1010.61 1010.87 1011.14 1011.42 1011.70 1011.97 1012.22 1012.44 1012.63 1012.77 1012.88 1012.94 1012.96 1012.95 1012.89 1012.81 1012.69 1012.54 1012.36 1012.16 1011.93 1011.69 1011.44 1011.17 1010.89 1010.60 1010.28 1009.93 1009.52 1009.04 1008.47 1007.81
1009.55 1009.82 1010.06 1010.29 1010.51 1010.74 1010.97 1011.21 1011.47 1011.74 1012.00 1012.26 1012.50 1012.71 1012.90 1013.05 1013.16 1013.24 1013.28 1013.29 1013.26 1013.20 1013.10 1012.97 1012.79 1012.59 1012.34 1012.07 1011.78 1011.47 1011.15 1010.81 1010.46 1010.08 1009.65 1009.17 1008.61 1007.96
1009.67 1010.02 1010.32 1010.59 1010.83 1011.07 1011.31 1011.56 1011.82 1012.08 1012.35 1012.61 1012.85 1013.06 1013.25 1013.40 1013.52 1013.61 1013.66 1013.69 1013.68 1013.63 1013.55 1013.43 1013.26 1013.05 1012.80 1012.51 1012.19 1011.84 1011.49 1011.13 1010.76 1010.37 1009.95 1009.48 1008.96 1008.35
1009.74 1010.15 1010.51 1010.82 1011.09 1011.35 1011.61 1011.88 1012.15 1012.43 1012.71 1012.98 1013.23 1013.46 1013.65 1013.80 1013.92 1014.01 1014.07 1014.09 1014.09 1014.06 1013.98 1013.87 1013.71 1013.50 1013.24 1012.93 1012.60 1012.24 1011.87 1011.50 1011.13 1010.75 1010.36 1009.93 1009.46 1008.92
1009.75 1010.22 1010.62 1010.96 1011.26 1011.55 1011.83 1012.12 1012.42 1012.73 1013.04 1013.34 1013.61 1013.84 1014.04 1014.19 1014.30 1014.38 1014.43 1014.45 1014.44 1014.41 1014.34 1014.23 1014.08 1013.87 1013.62 1013.32 1012.98 1012.62 1012.25 1011.88 1011.52 1011.17 1010.82 1010.46 1010.06 1009.61
1009.71 1010.21 1010.63 1010.99 1011.31 1011.62 1011.93 1012.26 1012.59 1012.94 1013.28 1013.61 1013.90 1014.15 1014.35 1014.50 1014.60 1014.67 1014.70 1014.71 1014.69 1014.66 1014.59 1014.49 1014.35 1014.15 1013.91 1013.63 1013.30 1012.96 1012.60 1012.26 1011.92 1011.61 1011.31 1011.01 1010.69 1010.33
1009.55 1010.07 1010.51 1010.88 1011.22 1011.55 1011.89 1012.25 1012.62 1013.01 1013.39 1013.74 1014.06 1014.32 1014.53 1014.68 1014.77 1014.83 1014.85 1014.84 1014.82 1014.79 1014.73 1014.65 1014.52 1014.36 1014.14 1013.88 1013.59 1013.27 1012.94 1012.61 1012.31 1012.03 1011.78 1011.54 1011.30 1011.03
1009.27 1009.79 1010.23 1010.61 1010.97 1011.32 1011.69 1012.09 1012.50 1012.93 1013.34 1013.73 1014.07 1014.35 1014.57 1014.72 1014.81 1014.86 1014.87 1014.87 1014.86 1014.83 1014.80 1014.74 1014.65 1014.52 1014.34 1014.12 1013.86 1013.57 1013.26 1012.97 1012.69 1012.45 1012.23 1012.04 1011.85 1011.64
1008.83 1009.35 1009.79 1010.19 1010.57 1010.95 1011.35 1011.79 1012.24 1012.70 1013.16 1013.58 1013.94 1014.24 1014.47 1014.62 1014.72 1014.78 1014.81 1014.82 1014.82 1014.83 1014.82 1014.81 1014.76 1014.68 1014.55 1014.36 1014.14 1013.88 1013.60 1013.33 1013.07 1012.85 1012.65 1012.48 1012.32 1012.16
1008.24 1008.77 1009.23 1009.65 1010.05 1010.46 1010.90 1011.37 1011.87 1012.36 1012.85 1013.29 1013.68 1014.00 1014.24 1014.42 1014.53 1014.61 1014.67 1014.71 1014.75 1014.80 1014.85 1014.88 1014.89 1014.86 1014.77 1014.63 1014.44 1014.21 1013.96 1013.69 1013.44 1013.21 1013.02 1012.85 1012.70 1012.56
1007.56 1008.10 1008.58 1009.02 1009.46 1009.91 1010.38 1010.89 1011.41 1011.93 1012.44 1012.91 1013.31 1013.65 1013.92 1014.12 1014.26 1014.38 1014.47 1014.56 1014.66 1014.77 1014.87 1014.96 1015.03 1015.05 1015.01 1014.91 1014.75 1014.54 1014.29 1014.03 1013.77 1013.53 1013.32 1013.14 1012.99 1012.84
1006.84 1007.41 1007.91 1008.38 1008.85 1009.33 1009.83 1010.36 1010.90 1011.45 1011.97 1012.44 1012.86 1013.21 1013.50 1013.73 1013.92 1014.07 1014.22 1014.38 1014.54 1014.71 1014.88 1015.03 1015.15 1015.22 1015.22 1015.15 1015.01 1014.81 1014.56 1014.29 1014.02 1013.77 1013.54 1013.34 1013.17 1013.02
Thickness
5682 5682 5681 5680 5679 5678 5677 5675 5671 5665 5663 5665 5668 5670 5673 5675 5676 5679 5680 5682 5685 5687 5689 5692 5694 5696 5699 5701 5701 5701 5701 5701 5701 5701 5701 5702 5702 5702
5674 5673 5672 5672 5671 5671 5670 5669 5668 5665 5659 5657 5658 5660 5663 5665 5666 5668 5670 5672 5674 5677 5679 5681 5683 5685 5687 5689 5690 5690 5691 5691 5692 5692 5693 5694 5694 5695
5663 5663 5663 5663 5662 5662 5662 5662 5661 5660 5653 5648 5649 5650 5653 5654 5656 5658 5661 5662 5664 5666 5668 5670 5672 5674 5675 5677 5678 5679 5680 5680 5681 5683 5684 5685 5686 5687
5653 5653 5653 5653 5652 5652 5652 5652 5652 5651 5648 5641 5639 5641 5642 5644 5646 5648 5650 5652 5654 5655 5658 5660 5662 5663 5664 5666 5667 5668 5669 5670 5671 5672 5674 5675 5677 5679
5643 5642 5643 5643 5642 5641 5642 5641 5641 5640 5638 5635 5630 5630 5632 5634 5636 5638 5639 5641 5644 5645 5647 5649 5651 5653 5654 5655 5655 5656 5657 5659 5660 5662 5663 5665 5667 5669
5631 5632 5632 5633 5632 5631 5631 5630 5629 5627 5626 5624 5622 5622 5623 5624 5626 5627 5629 5630 5632 5634 5636 5638 5640 5641 5642 5643 5644 5644 5645 5647 5648 5650 5652 5655 5657 5660
5621 5622 5622 5623 5623 5623 5621 5619 5619 5617 5615 5615 5614 5614 5613 5615 5616 5618 5620 5621 5622 5623 5626 5628 5629 5630 5630 5631 5632 5633 5634 5635 5637 5638 5641 5644 5647 5650
5611 5611 5611 5612 5612 5611 5611 5610 5611 5609 5607 5606 5605 5606 5605 5607 5608 5611 5612 5615 5615 5614 5615 5617 5618 5619 5619 5620 5620 5621 5622 5623 5624 5626 5628 5631 5635 5639
5603 5603 5603 5602 5602 5602 5601 5600 5600 5600 5601 5601 5600 5599 5600 5602 5603 5605 5604 5605 5603 5602 5605 5608 5608 5609 5609 5608 5609 5609 5609 5610 5612 5613 5615 5618 5622 5627
5594 5594 5594 5593 5594 5594 5593 5592 5591 5591 5593 5595 5595 5595 5596 5596 5597 5597 5597 5596 5595 5594 5596 5597 5598 5598 5598 5598 5597 5597 5597 5597 5599 5600 5602 5605 5609 5614
5586 5586 5586 5586 5586 5587 5588 5586 5585 5585 5586 5588 5589 5590 5590 5591 5591 5593 5592 5593 5590 5589 5586 5587 5586 5586 5587 5587 5585 5584 5584 5584 5585 5586 5588 5591 5595 5600
5578 5579 5580 5581 5581 5583 5584 5583 5582 5580 5582 5583 5582 5583 5584 5584 5585 5586 5586 5586 5584 5582 5578 5577 5577 5575 5576 5574 5572 5571 5570 5571 5571 5572 5574 5576 5580 5585
5575 5574 5574 5576 5577 5578 5580 5581 5579 5577 5577 5577 5577 5577 5577 5577 5577 5577 5577 5577 5576 5573 5569 5568 5568 5565 5562 5561 5560 5558 5556 5556 5557 5559 5561 5563 5566 5569
5573 5572 5571 5572 5573 5574 5575 5574 5573 5573 5574 5573 5572 5571 5571 5570 5569 5569 5568 5567 5566 5564 5561 5560 5558 5555 5552 5550 5547 5545 5545 5544 5544 5546 5548 5550 5553 5556
5571 5569 5569 5569 5569 5569 5569 5569 5570 5570 5570 5569 5568 5566 5564 5563 5564 5563 5562 5561 5560 5557 5555 5552 5549 5546 5542 5538 5535 5533 5532 5532 5532 5533 5535 5537 5539 5543
5566 5565 5564 5564 5565 5565 5564 5564 5565 5566 5566 5564 5562 5560 5560 5560 5559 5558 5557 5556 5555 5552 5548 5545 5541 5538 5535 5529 5526 5523 5521 5521 5521 5523 5524 5526 5527 5529
5563 5561 5561 5561 5561 5560 5560 5560 5560 5561 5560 5559 5558 5558 5557 5556 5554 5552 5551 5550 5548 5546 5543 5539 5535 5531 5526 5522 5520 5517 5514 5513 5512 5512 5515 5516 5516 5518
5563 5561 5560 5560 5561 5560 5559 5558 5557 5557 5557 5556 5555 5555 5554 5552 5550 5548 5546 5545 5543 5539 5536 5532 5530 5529 5525 5519 5511 5509 5508 5506 5504 5504 5505 5507 5508 5508
5563 5561 5560 5559 5559 5558 5557 5557 5556 5554 5553 5553 5553 5551 5550 5549 5547 5545 5543 5541 5538 5534 5530 5526 5524 5524 5522 5518 5511 5503 5500 5499 5499 5499 5498 5498 5498 5499
5564 5562 5560 5558 5558 5557 5556 5555 5554 5551 5550 5550 5549 5548 5547 5546 5544 5542 5540 5537 5534 5531 5528 5524 5520 5517 5514 5510 5505 5500 5495 5493 5492 5492 5492 5491 5492 5492
5562 5561 5560 5558 5557 5556 5555 5554 5553 5551 5549 5548 5547 5545 5544 5543 5541 5539 5536 5531 5529 5527 5525 5521 5515 5509 5506 5504 5503 5499 5494 5488 5484 5483 5484 5486 5487 5487
5563 5561 5560 5558 5557 5556 5554 5552 5551 5549 5547 5546 5545 5543 5542 5540 5539 5536 5533 5530 5527 5524 5520 5516 5510 5508 5505 5503 5499 5495 5491 5486 5481 5478 5475 5475 5476 5477
5564 5562 5560 5558 5557 5555 5553 5552 5551 5549 5547 5545 5544 5542 5540 5537 5535 5533 5530 5526 5523 5519 5516 5512 5508 5504 5500 5496 5493 5490 5486 5482 5478 5476 5472 5468 5466 5465